| time (UTC) | temp C | wind direction | speed KPH | gust KPH | rain 1hr cm | rain 24hr cm | rain mn cm | humidity % | barometer mb |
| 20260506095726 | 7 | 73 | 4.8 | 17.7 | 0.00 | 0.08 | 0.00 | 83 | 1013.5 |
| 20260506094724 | 7 | 21 | 3.2 | 14.5 | 0.00 | 0.08 | 0.00 | 83 | 1013.2 |
| 20260506093725 | 7 | 74 | 3.2 | 9.7 | 0.00 | 0.08 | 0.00 | 82 | 1013.1 |
| 20260506092722 | 8 | 128 | 3.2 | 22.5 | 0.00 | 0.10 | 0.00 | 82 | 1012.7 |
| 20260506091722 | 8 | 71 | 4.8 | 22.5 | 0.00 | 0.10 | 0.00 | 82 | 1012.8 |
| 20260506090722 | 8 | 355 | 4.8 | 20.9 | 0.00 | 0.10 | 0.00 | 84 | 1013.3 |
| 20260506085723 | 8 | 29 | 6.4 | 17.7 | 0.00 | 0.13 | 0.00 | 84 | 1013.3 |
| 20260506084722 | 8 | 75 | 6.4 | 20.9 | 0.00 | 0.13 | 0.00 | 85 | 1013.2 |
| 20260506083722 | 8 | 13 | 3.2 | 16.1 | 0.00 | 0.13 | 0.00 | 86 | 1013.2 |
| 20260506083219 | 8 | 12 | 4.8 | 16.1 | 0.00 | 0.15 | 0.00 | 86 | 1012.8 |
| 20260506081722 | 8 | 72 | 4.8 | 19.3 | 0.00 | 0.18 | 0.00 | 88 | 1012.2 |
| 20260506080722 | 8 | 331 | 4.8 | 16.1 | 0.00 | 0.81 | 0.00 | 88 | 1012.3 |
| 20260506073210 | 8 | 104 | 3.2 | 8.0 | 0.00 | 1.17 | 0.00 | 90 | 1012.1 |
| 20260506070722 | 8 | 0 | 4.8 | 19.3 | 0.00 | 1.17 | 0.00 | 90 | 1012.2 |
| 20260506061717 | 8 | 332 | 6.4 | 20.9 | 0.00 | 1.35 | 0.00 | 90 | 1012.3 |
| 20260506060717 | 8 | 63 | 4.8 | 20.9 | 0.00 | 1.35 | 0.00 | 91 | 1012.5 |
| 20260506050708 | 8 | 342 | 4.8 | 16.1 | 0.00 | 1.35 | 0.00 | 93 | 1012.2 |
| 20260506044710 | 8 | 33 | 4.8 | 16.1 | 0.00 | 1.35 | 1.35 | 93 | 1012.1 |
| 20260506044201 | 8 | 51 | 6.4 | 16.1 | 0.00 | 1.35 | 1.35 | 93 | 1011.9 |
| 20260506042702 | 8 | 14 | 4.8 | 12.9 | 0.00 | 1.35 | 1.35 | 93 | 1012.0 |
| 20260506040703 | 8 | 348 | 4.8 | 14.5 | 0.00 | 1.35 | 1.35 | 92 | 1011.7 |
| 20260506035703 | 8 | 34 | 3.2 | 14.5 | 0.00 | 1.35 | 1.35 | 92 | 1011.5 |
| 20260506034702 | 8 | 49 | 3.2 | 9.7 | 0.00 | 1.35 | 1.35 | 92 | 1011.3 |
| 20260506033702 | 8 | 59 | 4.8 | 17.7 | 0.00 | 1.35 | 1.35 | 92 | 1011.4 |
| 20260506033150 | 8 | 33 | 4.8 | 17.7 | 0.00 | 1.35 | 1.35 | 92 | 1011.2 |
| 20260506031704 | 8 | 40 | 6.4 | 16.1 | 0.00 | 1.35 | 1.35 | 93 | 1011.0 |
| 20260506030658 | 8 | 31 | 6.4 | 19.3 | 0.00 | 1.35 | 1.35 | 93 | 1010.7 |
| 20260506025658 | 8 | 56 | 4.8 | 16.1 | 0.00 | 1.35 | 1.35 | 93 | 1010.6 |
| 20260506024654 | 8 | 15 | 8.0 | 22.5 | 0.00 | 1.35 | 1.35 | 93 | 1010.3 |
| 20260506023653 | 8 | 40 | 6.4 | 16.1 | 0.00 | 1.35 | 1.35 | 94 | 1010.0 |
| 20260506023133 | 8 | 33 | 3.2 | 9.7 | 0.00 | 1.35 | 1.35 | 94 | 1009.9 |
| 20260506020655 | 8 | 340 | 6.4 | 14.5 | 0.00 | 1.35 | 1.35 | 93 | 1009.7 |
| 20260506015653 | 8 | 327 | 3.2 | 12.9 | 0.00 | 1.35 | 1.35 | 93 | 1009.6 |
| 20260506014654 | 8 | 55 | 4.8 | 12.9 | 0.05 | 1.35 | 1.35 | 93 | 1009.5 |
| 20260506013656 | 8 | 26 | 6.4 | 14.5 | 0.05 | 1.35 | 1.35 | 93 | 1009.9 |
| 20260506012654 | 8 | 294 | 4.8 | 14.5 | 0.05 | 1.35 | 1.35 | 93 | 1009.7 |
| 20260506011653 | 8 | 327 | 6.4 | 16.1 | 0.05 | 1.35 | 1.35 | 93 | 1009.4 |
| 20260506010655 | 8 | 340 | 4.8 | 16.1 | 0.05 | 1.35 | 1.35 | 92 | 1009.5 |
| 20260506005655 | 9 | 26 | 6.4 | 19.3 | 0.05 | 1.35 | 1.35 | 92 | 1009.4 |
| 20260506004649 | 9 | 37 | 6.4 | 20.9 | 0.00 | 1.30 | 1.30 | 92 | 1009.1 |
| 20260506003648 | 9 | 345 | 6.4 | 17.7 | 0.00 | 1.30 | 1.30 | 93 | 1009.2 |
| 20260506002647 | 9 | 9 | 8.0 | 17.7 | 0.00 | 1.30 | 1.30 | 93 | 1008.8 |
| 20260506001646 | 9 | 342 | 8.0 | 20.9 | 0.00 | 1.30 | 1.30 | 93 | 1008.9 |
| 20260506000645 | 9 | 309 | 9.7 | 20.9 | 0.00 | 1.30 | 1.30 | 93 | 1008.6 |
| 20260506000125 | 9 | 309 | 8.0 | 19.3 | 0.00 | 1.30 | 1.30 | 93 | 1008.5 |
| 20260505234644 | 10 | 346 | 11.3 | 24.1 | 0.00 | 1.30 | 1.30 | 92 | 1008.3 |
| 20260505233649 | 10 | 349 | 6.4 | 27.4 | 0.00 | 1.30 | 1.30 | 92 | 1007.9 |
| 20260505233124 | 10 | 355 | 12.9 | 27.4 | 0.00 | 1.30 | 1.30 | 92 | 1007.9 |
| 20260505231640 | 10 | 345 | 9.7 | 22.5 | 0.00 | 1.30 | 1.30 | 91 | 1008.3 |
| 20260505230639 | 11 | 15 | 9.7 | 20.9 | 0.00 | 1.30 | 1.30 | 91 | 1008.1 |
| 20260505225640 | 11 | 338 | 9.7 | 19.3 | 0.00 | 1.30 | 1.30 | 91 | 1007.7 |
| 20260505224639 | 11 | 26 | 6.4 | 20.9 | 0.00 | 1.30 | 1.30 | 90 | 1007.1 |
| 20260505223638 | 11 | 355 | 6.4 | 17.7 | 0.00 | 1.30 | 1.30 | 90 | 1007.4 |
| 20260505222637 | 11 | 355 | 9.7 | 19.3 | 0.00 | 1.30 | 1.30 | 90 | 1007.7 |
| 20260505221633 | 12 | 24 | 8.0 | 16.1 | 0.00 | 1.30 | 1.30 | 90 | 1007.3 |
| 20260505220633 | 12 | 13 | 9.7 | 17.7 | 0.00 | 1.30 | 1.30 | 90 | 1006.8 |
| 20260505215635 | 12 | 15 | 8.0 | 22.5 | 0.00 | 1.30 | 1.30 | 90 | 1006.8 |
| 20260505214635 | 12 | 320 | 6.4 | 16.1 | 0.00 | 1.30 | 1.30 | 91 | 1006.6 |
| 20260505213633 | 12 | 338 | 9.7 | 19.3 | 0.00 | 1.30 | 1.30 | 90 | 1006.8 |
| 20260505212631 | 13 | 340 | 8.0 | 16.1 | 0.00 | 1.30 | 1.30 | 91 | 1007.3 |
| 20260505212112 | 13 | 340 | 9.7 | 25.7 | 0.00 | 1.30 | 1.30 | 90 | 1006.8 |
| 20260505210629 | 13 | 335 | 8.0 | 17.7 | 0.00 | 1.30 | 1.30 | 90 | 1006.5 |
| 20260505205631 | 13 | 19 | 6.4 | 19.3 | 0.00 | 1.30 | 1.30 | 91 | 1006.5 |
| 20260505204628 | 13 | 15 | 8.0 | 20.9 | 0.00 | 1.30 | 1.30 | 91 | 1006.6 |
| 20260505203626 | 13 | 330 | 4.8 | 16.1 | 0.00 | 1.30 | 1.30 | 91 | 1006.5 |
| 20260505203103 | 13 | 0 | 4.8 | 16.1 | 0.00 | 1.30 | 1.30 | 91 | 1006.5 |
| 20260505201633 | 14 | 342 | 6.4 | 16.1 | 0.00 | 1.30 | 1.30 | 90 | 1006.6 |
| 20260505200630 | 14 | 5 | 6.4 | 17.7 | 0.00 | 1.30 | 1.30 | 90 | 1006.6 |
| 20260505195627 | 14 | 11 | 8.0 | 17.7 | 0.00 | 1.30 | 1.30 | 90 | 1006.7 |
| 20260505194625 | 15 | 342 | 11.3 | 19.3 | 0.00 | 1.30 | 1.30 | 90 | 1006.9 |
| 20260505193623 | 15 | 39 | 11.3 | 20.9 | 0.00 | 1.30 | 1.30 | 90 | 1006.9 |
| 20260505192625 | 15 | 52 | 8.0 | 25.7 | 0.00 | 1.30 | 1.30 | 90 | 1006.0 |
| 20260505191621 | 15 | 347 | 16.1 | 25.7 | 0.00 | 1.30 | 1.30 | 90 | 1005.3 |
| 20260505190619 | 15 | 323 | 19.3 | 32.2 | 0.00 | 1.30 | 1.30 | 89 | 1005.9 |
| 20260505185619 | 16 | 348 | 20.9 | 35.4 | 0.00 | 1.30 | 1.30 | 88 | 1006.0 |
| 20260505184619 | 18 | 0 | 14.5 | 29.0 | 0.00 | 1.30 | 1.30 | 89 | 1005.6 |
| 20260505183619 | 18 | 355 | 11.3 | 20.9 | 0.00 | 1.30 | 1.30 | 88 | 1005.4 |
| 20260505182619 | 19 | 327 | 6.4 | 14.5 | 0.00 | 1.30 | 1.30 | 84 | 1005.6 |
| 20260505181620 | 21 | 192 | 8.0 | 19.3 | 0.00 | 1.30 | 1.30 | 83 | 1005.7 |
| 20260505180617 | 21 | 175 | 6.4 | 11.3 | 0.00 | 1.30 | 1.30 | 82 | 1005.4 |
| 20260505175617 | 21 | 240 | 8.0 | 20.9 | 0.00 | 1.30 | 1.30 | 82 | 1005.2 |
| 20260505175058 | 21 | 169 | 11.3 | 19.3 | 0.00 | 1.30 | 1.30 | 82 | 1005.1 |
| 20260505173619 | 21 | 191 | 12.9 | 19.3 | 0.00 | 1.30 | 1.30 | 83 | 1005.5 |
| 20260505172619 | 21 | 193 | 11.3 | 19.3 | 0.00 | 1.30 | 1.30 | 83 | 1005.4 |
| 20260505171619 | 21 | 203 | 11.3 | 19.3 | 0.00 | 1.30 | 1.30 | 83 | 1005.5 |
| 20260505171106 | 21 | 209 | 9.7 | 17.7 | 0.00 | 1.30 | 1.30 | 84 | 1005.4 |
| 20260505165617 | 20 | 188 | 11.3 | 20.9 | 0.00 | 1.30 | 1.30 | 84 | 1005.5 |
| 20260505164617 | 20 | 167 | 4.8 | 12.9 | 0.00 | 1.30 | 1.30 | 86 | 1005.6 |
| 20260505163618 | 20 | 144 | 3.2 | 8.0 | 0.00 | 1.30 | 1.30 | 85 | 1005.6 |
| 20260505163057 | 20 | 165 | 4.8 | 9.7 | 0.00 | 1.30 | 1.30 | 84 | 1005.5 |
| 20260505161617 | 20 | 122 | 4.8 | 11.3 | 0.00 | 1.30 | 1.30 | 84 | 1005.3 |
| 20260505161102 | 20 | 161 | 9.7 | 17.7 | 0.00 | 1.30 | 1.30 | 84 | 1005.2 |
| 20260505152615 | 20 | 179 | 9.7 | 24.1 | 0.00 | 1.30 | 1.30 | 86 | 1005.0 |
| 20260505151616 | 19 | 156 | 4.8 | 12.9 | 0.00 | 1.30 | 1.30 | 88 | 1005.2 |
| 20260505151058 | 19 | 126 | 6.4 | 11.3 | 0.00 | 1.30 | 1.30 | 88 | 1005.1 |
| 20260505140612 | 17 | 147 | 4.8 | 11.3 | 0.00 | 1.30 | 1.30 | 91 | 1005.7 |
| 20260505124603 | 16 | 150 | 8.0 | 14.5 | 0.00 | 1.30 | 1.30 | 93 | 1005.6 |
| 20260505123601 | 16 | 141 | 8.0 | 14.5 | 0.00 | 1.30 | 1.30 | 93 | 1005.6 |
| 20260505122602 | 15 | 136 | 8.0 | 14.5 | 0.00 | 1.30 | 1.30 | 93 | 1005.5 |
| 20260505121602 | 15 | 150 | 8.0 | 14.5 | 0.00 | 1.30 | 1.30 | 93 | 1005.6 |
| 20260505121103 | 15 | 134 | 8.0 | 14.5 | 0.00 | 1.30 | 1.30 | 94 | 1005.7 |
| 20260505120050 | 15 | 124 | 6.4 | 11.3 | 0.00 | 1.30 | 1.30 | 94 | 1005.5 |
| 20260505114602 | 15 | 138 | 6.4 | 11.3 | 0.00 | 1.30 | 1.30 | 94 | 1005.4 |
| 20260505113602 | 15 | 139 | 4.8 | 9.7 | 0.00 | 1.30 | 1.30 | 94 | 1005.7 |
| 20260505111604 | 15 | 128 | 3.2 | 11.3 | 0.03 | 1.30 | 1.30 | 94 | 1005.6 |
| 20260505111047 | 15 | 125 | 4.8 | 16.1 | 0.03 | 1.30 | 1.30 | 94 | 1005.5 |
| 20260505101603 | 15 | 105 | 1.6 | 8.0 | 0.03 | 1.27 | 1.27 | 94 | 1005.8 |
| 20260505100603 | 15 | 110 | 0.0 | 4.8 | 0.03 | 1.27 | 1.27 | 94 | 1006.0 |